FLYING LAPTOP (42831 NORAD) Tracking and Keplerian Element Data

This shows tracking and keplerian element data for the satellite.

Feedback or suggestion? Click here.




ElementValue
Catalog42831
NameFLYING LAPTOP
Epoch Orbit5489
Epoch Day198.82884364
Epoch Year2018
RAAN100.0525
Inclination97.5942
Eccentricity0.0015723
Argument of Perigee97.0596
Mean Anonmoly263.2412
Mean Motion14.90866788
Decay Rate7.3E-07
L11 42831U 17042G 18198.82884364 .00000073 00000-0 12869-4 0 9992
L22 42831 97.5942 100.0525 0015723 97.0596 263.2412 14.90866788 54896

Live tracking and technical data element details for FLYING LAPTOP (NORAD 42831). FLYING LAPTOP can be tracked NOW for your location showing map with azimuth and elevation plus other details from your city location.

Track the satellite on the map from your city or location and see movement details for azimuth, elevation, latitude, longitude, range, height, and movement on the map or in text.







IsCatalogInMostPopularTable: catalog: 42831, numindb: 77
Update: records affected: 1



GetName: 42831 FLYING LAPTOP

Hit Count: updated at: Thu, 19 Jul 2018 03:32:27 GMT